Location: STAR School
(35.3054°N, 111.2976°W)
Time: 07:46:42
(UTC-07:00)

Transit 2A Rocket - Pass Details

Date: 28 May 2019
Orbit: 587 x 917 km, 66.7° (Epoch: 24 June)

Event Time Altitude Azimuth Distance (km) Brightness Sun altitude
Rises 03:01:38 0° 316° (NW) 3,293 8.4 -21.9°
Reaches altitude 10° 03:04:44 10° 300° (WNW) 2,293 7.4 -21.4°
Enters shadow 03:05:59 14° 289° (WNW) 1,973 6.9 -21.3°
